User: anonymous   Login
Location: Asheville, NC
(35.6000°N, 82.5500°W)
Time: 04:33:21
(UTC-05:00)
Language:

MOZHAYETS 4 - Orbit

View from above orbital plane
View from above orbital plane
View from above satellite
View from above satellite

Ground track
Ground track

The orbit data is extracted from the following two-line orbital elements,

1 27939U 03042A   18018.22064637  .00000074  00000-0  21852-4 0  9990
2 27939  97.9665 161.4455 0011670 263.1955 147.3251 14.66649836764830
Epoch (UTC): 18 January 2018 05:17:43
Eccentricity: 0.0011670
inclination: 97.9665°
perigee height: 663 km
apogee height: 680 km
right ascension of ascending node: 161.4455°
argument of perigee: 263.1955°
revolutions per day: 14.66649836
mean anomaly at epoch: 147.3251°
orbit number at epoch: 76483

The dashed part of the orbit path shows where the satellite is in the earth's shadow,  

DLR